| time (UTC) | temp F | wind direction | speed MPH | gust MPH | rain 1hr in | rain 24hr in | rain mn in | humidity % | barometer mb |
| 20260505014421 | 73 | 178 | 3.0 | 4.0 | 0.00 | 0.00 | 0.00 | 39 | 1019.9 |
| 20260505013120 | 73 | 203 | 4.0 | 6.0 | 0.00 | 0.00 | 0.00 | 40 | 1019.9 |
| 20260505011821 | 71 | 159 | 2.0 | 6.0 | 0.00 | 0.00 | 0.00 | 40 | 1020.0 |
| 20260505011202 | 70 | 173 | 2.0 | 4.0 | 0.00 | 0.00 | 0.00 | 42 | 1020.1 |
| 20260505010520 | 70 | 235 | 4.0 | 4.0 | 0.00 | 0.00 | 0.00 | 43 | 1020.0 |
| 20260505005222 | 70 | 178 | 1.0 | 4.0 | 0.00 | 0.00 | 0.00 | 52 | 1020.0 |
| 20260505003921 | 69 | 213 | 5.0 | 8.0 | 0.00 | 0.00 | 0.00 | 54 | 1020.0 |
| 20260505002621 | 68 | 174 | 1.0 | 1.0 | 0.00 | 0.00 | 0.00 | 58 | 1020.0 |
| 20260505001321 | 67 | 216 | 4.0 | 6.0 | 0.00 | 0.00 | 0.00 | 60 | 1020.0 |
| 20260505000021 | 66 | 201 | 2.0 | 3.0 | 0.00 | 0.00 | 0.00 | 61 | 1020.1 |
| 20260504234720 | 65 | 192 | 2.0 | 3.0 | 0.00 | 0.00 | 0.00 | 66 | 1020.1 |
| 20260504233421 | 64 | 198 | 4.0 | 5.0 | 0.00 | 0.00 | 0.00 | 67 | 1020.2 |
| 20260504232120 | 64 | 167 | 3.0 | 6.0 | 0.00 | 0.00 | 0.00 | 69 | 1020.2 |
| 20260504230822 | 62 | 202 | 3.0 | 2.0 | 0.00 | 0.00 | 0.00 | 70 | 1020.1 |
| 20260504225520 | 62 | 180 | 3.0 | 6.0 | 0.00 | 0.00 | 0.00 | 71 | 1019.9 |
| 20260504224221 | 60 | 160 | 2.0 | 5.0 | 0.00 | 0.00 | 0.00 | 75 | 1019.8 |
| 20260504222920 | 58 | 199 | 2.0 | 4.0 | 0.00 | 0.00 | 0.00 | 81 | 1019.8 |
| 20260504221620 | 56 | 205 | 0.0 | 2.0 | 0.00 | 0.00 | 0.00 | 88 | 1019.9 |
| 20260504220321 | 55 | 213 | 0.0 | 0.0 | 0.00 | 0.00 | 0.00 | 91 | 1019.8 |
| 20260504215021 | 53 | 213 | 0.0 | 1.0 | 0.00 | 0.00 | 0.00 | 93 | 1019.8 |
| 20260504213720 | 52 | 213 | 1.0 | 3.0 | 0.00 | 0.00 | 0.00 | 93 | 1019.7 |
| 20260504212422 | 51 | 213 | 1.0 | 3.0 | 0.00 | 0.00 | 0.00 | 93 | 1019.7 |
| 20260504211121 | 51 | 213 | 0.0 | 1.0 | 0.00 | 0.00 | 0.00 | 93 | 1019.6 |
| 20260504205821 | 51 | 175 | 1.0 | 3.0 | 0.00 | 0.00 | 0.00 | 93 | 1019.3 |
| 20260504204521 | 51 | 175 | 0.0 | 2.0 | 0.00 | 0.00 | 0.00 | 93 | 1019.2 |
| 20260504203220 | 51 | 175 | 0.0 | 1.0 | 0.00 | 0.00 | 0.00 | 93 | 1019.2 |
| 20260504201922 | 51 | 175 | 0.0 | 2.0 | 0.00 | 0.00 | 0.00 | 93 | 1019.1 |
| 20260504200621 | 51 | 175 | 0.0 | 2.0 | 0.00 | 0.00 | 0.00 | 93 | 1019.0 |
| 20260504195321 | 51 | 175 | 0.0 | 1.0 | 0.00 | 0.00 | 0.00 | 93 | 1018.8 |
| 20260504194020 | 51 | 175 | 0.0 | 1.0 | 0.00 | 0.00 | 0.00 | 93 | 1018.9 |
| 20260504192720 | 51 | 175 | 1.0 | 2.0 | 0.00 | 0.00 | 0.00 | 93 | 1018.7 |
| 20260504191420 | 52 | 175 | 0.0 | 1.0 | 0.00 | 0.00 | 0.00 | 92 | 1018.6 |
| 20260504190121 | 52 | 175 | 1.0 | 3.0 | 0.00 | 0.00 | 0.00 | 93 | 1018.6 |
| 20260504184821 | 52 | 175 | 1.0 | 2.0 | 0.00 | 0.00 | 0.00 | 92 | 1018.5 |
| 20260504183520 | 52 | 175 | 1.0 | 2.0 | 0.00 | 0.00 | 0.00 | 92 | 1018.5 |
| 20260504182221 | 52 | 175 | 0.0 | 1.0 | 0.00 | 0.00 | 0.00 | 92 | 1018.4 |
| 20260504180920 | 53 | 175 | 1.0 | 2.0 | 0.00 | 0.00 | 0.00 | 91 | 1018.4 |
| 20260504175622 | 53 | 175 | 1.0 | 2.0 | 0.00 | 0.00 | 0.00 | 91 | 1018.3 |
| 20260504174322 | 53 | 175 | 1.0 | 2.0 | 0.00 | 0.00 | 0.00 | 91 | 1018.2 |
| 20260504173021 | 53 | 175 | 0.0 | 1.0 | 0.00 | 0.00 | 0.00 | 91 | 1018.2 |
| 20260504171721 | 53 | 175 | 1.0 | 4.0 | 0.00 | 0.00 | 0.00 | 90 | 1018.1 |
| 20260504170420 | 54 | 174 | 1.0 | 4.0 | 0.00 | 0.00 | 0.00 | 90 | 1018.0 |
| 20260504150721 | 56 | 172 | 1.0 | 2.0 | 0.00 | 0.00 | 0.00 | 87 | 1017.9 |
| 20260504140220 | 56 | 164 | 1.0 | 3.0 | 0.00 | 0.00 | 0.00 | 85 | 1017.9 |
| 20260504081120 | 65 | 272 | 9.0 | 11.0 | 0.00 | 0.06 | 0.00 | 60 | 1014.7 |
| 20260504060122 | 66 | 271 | 8.0 | 14.0 | 0.00 | 0.29 | 0.00 | 51 | 1014.3 |
| 20260504045621 | 68 | 247 | 13.0 | 17.0 | 0.00 | 0.63 | 0.00 | 49 | 1013.4 |
| 20260504044321 | 68 | 278 | 6.0 | 12.0 | 0.00 | 0.64 | 0.00 | 48 | 1013.4 |
| 20260504043020 | 67 | 225 | 4.0 | 6.0 | 0.00 | 0.66 | 0.00 | 53 | 1013.6 |
| 20260504041721 | 67 | 273 | 10.0 | 14.0 | 0.00 | 0.70 | 0.00 | 52 | 1013.2 |
| 20260504040420 | 67 | 289 | 7.0 | 11.0 | 0.00 | 0.70 | 0.00 | 52 | 1013.5 |
| 20260504035121 | 67 | 262 | 6.0 | 19.0 | 0.00 | 0.72 | 0.00 | 52 | 1013.4 |
| 20260504033821 | 67 | 275 | 3.0 | 12.0 | 0.00 | 0.72 | 0.00 | 55 | 1013.3 |
| 20260504032521 | 66 | 281 | 8.0 | 13.0 | 0.00 | 0.76 | 0.00 | 56 | 1013.3 |
| 20260504031221 | 66 | 240 | 8.0 | 15.0 | 0.00 | 0.78 | 0.00 | 55 | 1013.2 |
| 20260504025920 | 65 | 290 | 9.0 | 10.0 | 0.00 | 0.80 | 0.00 | 58 | 1013.1 |
| 20260504024620 | 65 | 258 | 10.0 | 16.0 | 0.00 | 0.80 | 0.00 | 58 | 1013.1 |
| 20260504023321 | 66 | 277 | 6.0 | 15.0 | 0.00 | 0.82 | 0.00 | 59 | 1013.1 |
| 20260504022021 | 65 | 278 | 7.0 | 11.0 | 0.00 | 0.82 | 0.00 | 58 | 1013.3 |
| 20260504021203 | 66 | 280 | 8.0 | 11.0 | 0.00 | 0.82 | 0.00 | 58 | 1013.3 |
| 20260504020720 | 65 | 256 | 7.0 | 16.0 | 0.00 | 0.82 | 0.00 | 59 | 1013.3 |
| 20260504015422 | 65 | 266 | 7.0 | 13.0 | 0.00 | 0.82 | 0.00 | 57 | 1013.2 |